Regional Weather Roundup
Issued by NWS Austin/San Antonio, TX

Home | Current Version | Previous Version | Text Only | Print | Product List | Glossary On
Versions: 1 2 3 4 5 6 7 8 9 10 11 12 13 14 15 16 17 18 19 20 21 22 23 24 25 26 27 28 29 30 31 32 33 34 35 36 37 38 39 40 41 42 43 44 45 46 47 48 49 50
000
ASUS44 KEWX 160901
RWREWX
SOUTH TEXAS REGIONAL WEATHER ROUNDUP
NATIONAL WEATHER SERVICE AUSTIN/SAN ANTONIO TX
300 AM CST TUE JAN 16 2018

NOTE: "FAIR" INDICATED FEW OR NO CLOUDS BELOW 12,000 FEET WITH NO
SIGNIFICANT WEATHER AND/OR OBSTRUCTIONS TO VISIBILITY.

* - THESE STATIONS ARE NOT NWS OR FAA STATIONS...AND ARE NOT SUBJECT
    TO NWS AND FAA QUALITY CONTROL.

TXZ171-172-183>190-161000-
TEXAS HILL COUNTRY AND EDWARDS PLATEAU

CITY           SKY/WX    TMP DP  RH WIND       PRES   REMARKS
JUNCTION       CLOUDY    28  13  53 NE16G23   30.57R WCI  16
*LLANO         CLOUDY    28  21  74 N10G16    30.66R WCI  19
BURNET         CLOUDY    27  16  63 N16G29    30.60R WCI  15
*HORSESHOE BAY CLOUDY    30  21  67 N16G22    30.60R WCI  19
*KERRVILLE     LGT SNOW  30  24  80 N20       30.52R WCI  17
*FREDERICKSBRG CLOUDY    27  16  64 N21G26    30.54R WCI  13
*ROCKSPRINGS   LGT SNOW  27  14  59 NE21G36   30.51R WCI  13
*BOERNE STAGE  CLOUDY    32  30  93 N17G28    30.48R WCI  21
*CASTROVILLE   CLOUDY    38  32  79 N20G31    30.48R WCI  28
HONDO          CLOUDY    39 N/A N/A NE32G39   30.45R WCI  27
*UVALDE        DRIZZLE   39  32  77 NE18G26   30.43R WCI  30
DEL RIO        CLOUDY    40  21  46 NW18G30   30.51R WCI  31
LAUGHLIN AFB   CLOUDY    38  29  71 N21G28    30.50R WCI  27
CARRIZO SPRGS  LGT RAIN  43  43 100 NE14G20   30.41R WCI  36
*EAGLE PASS    CLOUDY    41  34  75 MISG      30.47R HAZE
*FAITH RANCH   CLOUDY    48  43  81 N16G29    30.40R WCI  42
$$

TXZ173-191>194-202-209-217>225-228-161000-
CENTRAL AND SOUTH CENTRAL TEXAS

CITY           SKY/WX    TMP DP  RH WIND       PRES   REMARKS
GEORGETOWN     CLOUDY    30  23  75 N22G28    30.60R WCI  17
AUSTIN/BERGSTM FRZ RAIN  32  32 100 N21G28    30.56R WCI  20
AUSTIN/MABRY   FRZ RAIN  32  27  81 N8G26     30.58R WCI  25
*AUSTIN/EXEC   LGT RAIN  32  27  80 N26G32    30.56R WCI  18
*LAGO VISTA    CLOUDY    28  25  86 MISG      30.55R
SAN MARCOS     CLOUDY    34  31  88 N23G31    30.53R WCI  22
NEW BRAUNFELS  CLOUDY    36  32  85 N23G30    30.49R WCI  24
RANDOLPH AFB   CLOUDY    37  32  83 N25G35    30.47R WCI  25
PT SAN ANTONIO CLOUDY    39  34  81 N26G36    30.44R WCI  28
SAN ANTONIO    LGT RAIN  37  31  78 N18G35    30.47R WCI  27
STINSON FIELD  CLOUDY    40  34  79 N18G28    30.45R WCI  31
*LA GRANGE     CLOUDY    34  32  92 N17G25    30.50R WCI  23
*GIDDINGS      DRIZZLE   32  30  92 N22G32    30.53R WCI  19
*GONZALES      CLOUDY    36  33  88 N20G31    30.49R WCI  25
$$

TXZ163>164-176>182-195>201-210>213-226-227-235-161000-
SOUTHEAST TEXAS

CITY           SKY/WX    TMP DP  RH WIND       PRES   REMARKS
COLLEGE STN    LGT SNOW  30  27  88 N24G35    30.55R FOG     WCI  16
*BRYAN         CLOUDY    28  28 100 N20G29    30.57R WCI  15
*CALDWELL      MIX PCPN  28  27  93 N21G33    30.56R FOG     WCI  15
*CROCKETT      LGT SNOW  28  27  93 CALM      30.57R
*BRENHAM       MIX PCPN  33  32  98 N21G35    30.53R WCI  20
HUNTSVILLE     FLURRIES  31  29  92 N13G22    30.50R WCI  21
CONROE         LGT SNOW  37  37 100 N10G23    30.46R FOG     WCI  30
HOUSTON BUSH   LGT RAIN  45  43  93 N21       30.42R WCI  37
HOUSTON HOBBY  LGT RAIN  52  51  97 N18       30.38R
*HOUSTON SW AP LGT RAIN  48  47  97 N12G21    30.39R WCI  44
PEARLAND       RAIN      52  52 100 N16G24    30.38R FOG
HOUSTON HOOKS  LGT RAIN  40  38  93 N16G30    30.45R WCI  31
ELLINGTON FLD  NOT AVBL
SUGAR LAND     CLOUDY    47  43  86 N23G31    30.40R WCI  39
*HOUSTON EXEC  LGT RAIN  37  37 100 N18G26    30.46R WCI  27
*CLEVELAND MUN RAIN      41  38  90 N14G24    30.45R WCI  34
*WHARTON       LGT RAIN  40  38  91 N21G28    30.42R WCI  31
*COLUMBUS      CLOUDY    35  32  90 N20G26    30.48R WCI  24
*EAGLE LAKE    DRIZZLE   38  37  93 N16G29    30.46R WCI  29
$$

TXZ214>216-236>238-161000-
THE UPPER TEXAS COAST

CITY           SKY/WX    TMP DP  RH WIND       PRES   REMARKS
*ORANGE        RAIN      49  48  99 N6        30.40R WCI  46
PORT ARTHUR    LGT RAIN  50  47  89 N10       30.38R WCI  46
GALVESTON      CLOUDY    57  55  93 E7        30.32S
ANGLETON       CLOUDY    56  51  84 N18G24    30.34R
*BAY CITY      HVY RAIN  51  47  87 N24G33    30.36R
PALACIOS       HVY RAIN  45  45 100 N30G43    30.35R FOG     WCI  35
$$

TXZ229>234-239>247-161000-
TEXAS COASTAL BEND AND RIO GRANDE PLAINS

CITY           SKY/WX    TMP DP  RH WIND       PRES   REMARKS
VICTORIA       LGT RAIN  39  36  89 N24G40    30.43R WCI  28
*BEEVILLE      LGT RAIN  39  38  95 N26G36    30.41R WCI  28
ROCKPORT       CLOUDY    53  49  86 N20G37    30.33R
*PORT ARANSAS  NOT AVBL
*PORT LAVACA   LGT RAIN  47  43  86 N29G35    30.36R WCI  38
*INGLESIDE     CLOUDY    62  56  82 SE6       30.28F
CORPUS CHRISTI CLOUDY    61  59  93 E7        30.29S
CORPUS NAS     CLOUDY    61  57  87 CALM      30.29S
*ROBSTOWN      NOT AVBL
ALICE          MOCLDY    55  51  86 CALM      30.28F
KINGSVILLE NAS CLOUDY    60  54  80 CALM      30.28F
COTULLA        LGT RAIN  44  41  89 NE15G29   30.40R WCI  37
LAREDO         MOCLDY    59  53  80 NE6       30.30R
$$

TXZ248>255-161000-
DEEP SOUTH TEXAS

CITY           SKY/WX    TMP DP  RH WIND       PRES   REMARKS
BROWNSVILLE    CLOUDY    64  56  75 E7        30.26R
PORT ISABEL    CLOUDY    63  56  78 SE8       30.25S
*SOUTH PADRE   NOT AVBL
HARLINGEN      PTCLDY    58  54  86 E6        30.25S
*HEBBRONVILLE  CLOUDY    56  52  86 CALM      30.30S
MCALLEN        CLOUDY    65  54  67 E10       30.26R
*WESLACO       MOCLDY    62  53  73 SE6       30.25S
FALFURRIAS     CLOUDY    62  53  73 CALM      30.29R
EDINBURG       CLOUDY    63  54  72 E5        30.27R
*ZAPATA        CLOUDY    61  52  72 E7        30.27S
$$

TXZ213>215-236>238-242>244-246-247-251-254-255-161000-
CMAN STATIONS

STATION/POSITION TIME  TEMP    WIND        PRES    WAVE
                       AIR SEA DIR/SP/G            HT/PER
                 (UTC) (F)     (DEG/KT/KT) (MB)    (FT/S)
SABINE PASS      0830   51 53   30/  5/  5 1029.0
SEA RIM ST PARK  0800   52     110/  5/  5 1027.1
NORTH JETTY/GLS  0830      51   90/  7/  7 1026.3
EAGLE POINT      0830   51 49  100/  5/  5 1026.8
MORGANS POINT    0830      50   10/  8/ 14 1027.9
PORT O`CONNOR    0830   57 54  140/  3/  4 1025.5
MALAQUITE BEACH  0830   61 57   20/  4/  6 1025.1
BAFFIN BAY       0830   60 59  140/  5/  6 1025.4
PORT ISABEL      0830   63 58  180/  1/  3 1024.4
$$



USA.gov is the U.S. government's official web portal to all federal, state and local government web resources and services.